Hourly Data Report for September 30, 2006

TORONTO CITY
ONTARIO

43°40'00.000" N
79°24'00.000" W
112.50 m
6158355
71508
XTO

Download Data

Hourly Data (September 2006)
Hourly Data Report for September 30, 2006
TIME
LST
Temp Definition
°C
Dew Point Definition
°C
Rel Hum Definition
%
Precip. Amount Definition
mm

Wind Dir Definition
10's deg

Wind Spd Definition
km/h
Visibility Definition
km
Stn Press Definition
kPa
Hmdx Definition


Wind Chill Definition


Weather Definition


00:00 8.5 6.5 87   LegendMM LegendMM   100.15     LegendNANA
01:00 9.5 5.5 76   LegendMM LegendMM   100.13     LegendNANA
02:00 9.6 5.6 76   LegendMM LegendMM   100.11     LegendNANA
03:00 9.9 6.7 80   LegendMM LegendMM   100.08     LegendNANA
04:00 9.3 7.4 88   LegendMM LegendMM   100.08     LegendNANA
05:00 10.0 8.4 90   LegendMM LegendMM   100.09     LegendNANA
06:00 9.6 8.4 92   LegendMM LegendMM   100.08     LegendNANA
07:00 10.3 8.7 90   LegendMM LegendMM   100.10     LegendNANA
08:00 11.1 9.4 89   LegendMM LegendMM   100.09     LegendNANA
09:00 13.0 10.1 83   LegendMM LegendMM   100.11     LegendNANA
10:00 13.8 9.7 76   LegendMM LegendMM   100.11     LegendNANA
11:00 14.4 9.5 72   LegendMM LegendMM   100.06     LegendNANA
12:00 14.9 8.5 66   LegendMM LegendMM   100.01     LegendNANA
13:00 15.4 8.7 64   LegendMM LegendMM   99.96     LegendNANA
14:00 13.8 7.9 68   LegendMM LegendMM   99.92     LegendNANA
15:00 12.8 8.0 73   LegendMM LegendMM   99.88     LegendNANA
16:00 12.2 8.6 79   LegendMM LegendMM   99.85     LegendNANA
17:00 11.4 9.9 90   LegendMM LegendMM   99.85     LegendNANA
18:00 10.8 9.9 94   LegendMM LegendMM   99.84     LegendNANA
19:00 10.7 10.1 96   LegendMM LegendMM   99.81     LegendNANA
20:00 11.1 10.5 96   LegendMM LegendMM   99.77     LegendNANA
21:00 12.0 11.2 95   LegendMM LegendMM   99.77     LegendNANA
22:00 11.9 11.1 95   LegendMM LegendMM   99.73     LegendNANA
23:00 12.1 11.4 95   LegendMM LegendMM   99.71     LegendNANA

Notes on Data Quality.

Legend

  • E = Estimated
  • M = Missing
  • NA = Not Available*
  • [empty] = Indicates an unobserved value
Date modified: